Location: Lowman
(44.0835°N, 115.6207°W)
Time: 20:15:38
(UTC+00:00)

Envisat - Pass Details

Date: 03 December 2022
Orbit: 763 x 765 km, 98.2° (Epoch: 29 January)

Event Time Altitude Azimuth Distance (km) Brightness Sun altitude
Rises 12:40:56 0° 6° (N) 3,243 6.2 -24.2°
Reaches altitude 10° 12:43:22 10° 359° (N) 2,313 5.4 -23.8°
Enters shadow 12:44:31 17° 353° (N) 1,895 4.9 -23.6°
